• In Deutschland
  • Länderverzeichnis
  • Für 7 Tage
  • Wassertemperatur
  • Satellitenkarten
  • Wetterkarte
  • Widgets
  • user-avatar
    Anmelden

    Stündliche Wetter Stepanakert

    Heute, 26 Juni, Montag

    Zeit Temperatur Niederschläge Wind Luftdruck Luftfeuchtigkeit
    00:00 +18°C° 0 mm 2 m/S 693 mmHg 74%
    01:00 +19°C° 0 mm 1 m/S 693 mmHg 77%
    02:00 +18°C° 0 mm 1 m/S 693 mmHg 79%
    03:00 +18°C° 0 mm 1 m/S 693 mmHg 82%
    04:00 +19°C° 0,1 mm 1 m/S 694 mmHg 80%
    05:00 +19°C° 0,1 mm 2 m/S 694 mmHg 78%
    06:00 +20°C° 0,1 mm 2 m/S 695 mmHg 75%
    07:00 +23°C° 0 mm 2 m/S 695 mmHg 69%
    08:00 +24°C° 0 mm 3 m/S 695 mmHg 64%
    09:00 +25°C° 0 mm 4 m/S 696 mmHg 57%
    10:00 +26°C° 0 mm 4 m/S 696 mmHg 55%
    11:00 +27°C° 0 mm 3 m/S 695 mmHg 52%
    12:00 +27°C° 0 mm 3 m/S 695 mmHg 50%
    13:00 +28°C° 0 mm 4 m/S 695 mmHg 50%
    14:00 +28°C° 0 mm 4 m/S 695 mmHg 49%
    15:00 +28°C° 0 mm 4 m/S 695 mmHg 48%
    16:00 +28°C° 0 mm 3 m/S 695 mmHg 51%
    17:00 +27°C° 0 mm 3 m/S 695 mmHg 54%
    18:00 +26°C° 0 mm 3 m/S 695 mmHg 58%
    19:00 +24°C° 0 mm 3 m/S 695 mmHg 64%
    20:00 +21°C° 0 mm 2 m/S 695 mmHg 71%
    21:00 +19°C° 0 mm 2 m/S 695 mmHg 78%
    22:00 +19°C° 0 mm 1 m/S 695 mmHg 80%
    23:00 +19°C° 0 mm 1 m/S 695 mmHg 82%

    Morgen, 27 Juni, Dienstag

    Zeit Temperatur Niederschläge Wind Luftdruck Luftfeuchtigkeit
    00:00 +18°C° 0 mm 1 m/S 695 mmHg 85%
    01:00 +18°C° 0 mm 1 m/S 695 mmHg 85%
    02:00 +18°C° 0 mm 1 m/S 694 mmHg 85%
    03:00 +16°C° 0 mm 1 m/S 694 mmHg 86%
    04:00 +18°C° 0 mm 1 m/S 694 mmHg 83%
    05:00 +20°C° 0 mm 1 m/S 695 mmHg 79%
    06:00 +19°C° 0 mm 0 m/S 695 mmHg 76%
    07:00 +23°C° 0 mm 1 m/S 695 mmHg 68%
    08:00 +24°C° 0 mm 1 m/S 695 mmHg 61%
    09:00 +26°C° 0 mm 2 m/S 695 mmHg 54%
    10:00 +27°C° 0 mm 2 m/S 695 mmHg 50%
    11:00 +29°C° 0 mm 2 m/S 694 mmHg 47%
    12:00 +30°C° 0 mm 2 m/S 694 mmHg 43%
    13:00 +31°C° 0 mm 2 m/S 693 mmHg 42%
    14:00 +31°C° 0 mm 2 m/S 693 mmHg 42%
    15:00 +33°C° 0 mm 3 m/S 692 mmHg 41%
    16:00 +31°C° 0 mm 2 m/S 692 mmHg 44%
    17:00 +30°C° 0 mm 2 m/S 692 mmHg 46%
    18:00 +30°C° 0 mm 2 m/S 692 mmHg 49%
    19:00 +27°C° 0 mm 2 m/S 692 mmHg 58%
    20:00 +24°C° 0 mm 1 m/S 691 mmHg 67%
    21:00 +21°C° 0 mm 1 m/S 691 mmHg 75%
    22:00 +21°C° 0 mm 1 m/S 691 mmHg 77%
    23:00 +20°C° 0 mm 1 m/S 691 mmHg 79%

    übermorgen, 28 Juni, Mittwoch

    Zeit Temperatur Niederschläge Wind Luftdruck Luftfeuchtigkeit
    00:00 +20°C° 0 mm 1 m/S 691 mmHg 81%
    01:00 +19°C° 0 mm 1 m/S 691 mmHg 82%
    02:00 +19°C° 0 mm 1 m/S 691 mmHg 83%
    03:00 +17°C° 0 mm 0 m/S 691 mmHg 85%
    04:00 +20°C° 0 mm 1 m/S 691 mmHg 81%
    05:00 +22°C° 0 mm 1 m/S 691 mmHg 77%
    06:00 +23°C° 0 mm 1 m/S 692 mmHg 73%
    07:00 +25°C° 0 mm 1 m/S 692 mmHg 65%
    08:00 +27°C° 0 mm 1 m/S 692 mmHg 57%
    09:00 +29°C° 0 mm 2 m/S 692 mmHg 49%
    10:00 +30°C° 0 mm 2 m/S 692 mmHg 46%
    11:00 +31°C° 0 mm 2 m/S 692 mmHg 43%
    12:00 +34°C° 0 mm 3 m/S 692 mmHg 40%
    13:00 +34°C° 0,1 mm 3 m/S 691 mmHg 39%
    14:00 +34°C° 0,1 mm 3 m/S 691 mmHg 39%
    15:00 +34°C° 0,1 mm 3 m/S 690 mmHg 38%
    16:00 +34°C° 0,1 mm 3 m/S 690 mmHg 41%
    17:00 +32°C° 0,1 mm 2 m/S 690 mmHg 44%
    18:00 +31°C° 0,1 mm 2 m/S 690 mmHg 47%
    19:00 +29°C° 0,2 mm 2 m/S 690 mmHg 54%
    20:00 +26°C° 0,2 mm 2 m/S 690 mmHg 60%
    21:00 +23°C° 0,2 mm 1 m/S 690 mmHg 67%
    22:00 +23°C° 0 mm 1 m/S 690 mmHg 68%
    23:00 +22°C° 0 mm 1 m/S 690 mmHg 69%

    29 Juni, Donnerstag

    Zeit Temperatur Niederschläge Wind Luftdruck Luftfeuchtigkeit
    00:00 +22°C° 0 mm 1 m/S 690 mmHg 70%
    01:00 +21°C° 0 mm 1 m/S 690 mmHg 72%
    02:00 +21°C° 0 mm 1 m/S 690 mmHg 73%
    03:00 +20°C° 0 mm 1 m/S 690 mmHg 75%
    04:00 +22°C° 0 mm 1 m/S 690 mmHg 71%
    05:00 +23°C° 0 mm 1 m/S 691 mmHg 67%
    06:00 +24°C° 0 mm 1 m/S 691 mmHg 63%
    07:00 +26°C° 0 mm 1 m/S 692 mmHg 55%
    08:00 +27°C° 0 mm 1 m/S 692 mmHg 47%
    09:00 +29°C° 0 mm 2 m/S 692 mmHg 39%
    10:00 +30°C° 0 mm 2 m/S 692 mmHg 37%
    11:00 +31°C° 0 mm 2 m/S 692 mmHg 34%
    12:00 +33°C° 0 mm 3 m/S 691 mmHg 31%
    13:00 +34°C° 0,1 mm 3 m/S 691 mmHg 31%
    14:00 +34°C° 0,1 mm 3 m/S 691 mmHg 30%
    15:00 +34°C° 0,1 mm 3 m/S 690 mmHg 29%
    16:00 +33°C° 0,1 mm 3 m/S 690 mmHg 32%
    17:00 +33°C° 0,1 mm 3 m/S 690 mmHg 34%
    18:00 +31°C° 0,1 mm 2 m/S 690 mmHg 36%
    19:00 +28°C° 0 mm 2 m/S 690 mmHg 41%
    20:00 +25°C° 0 mm 2 m/S 690 mmHg 45%
    21:00 +22°C° 0 mm 1 m/S 690 mmHg 50%
    22:00 +22°C° 0 mm 1 m/S 690 mmHg 49%
    23:00 +21°C° 0 mm 1 m/S 690 mmHg 48%

    30 Juni, Freitag

    Zeit Temperatur Niederschläge Wind Luftdruck Luftfeuchtigkeit
    00:00 +20°C° 0 mm 2 m/S 690 mmHg 47%
    01:00 +20°C° 0 mm 2 m/S 690 mmHg 47%
    02:00 +19°C° 0 mm 2 m/S 690 mmHg 47%
    03:00 +19°C° 0 mm 2 m/S 690 mmHg 48%
    04:00 +20°C° 0 mm 2 m/S 690 mmHg 45%
    05:00 +21°C° 0 mm 2 m/S 691 mmHg 43%
    06:00 +23°C° 0 mm 2 m/S 691 mmHg 41%
    07:00 +25°C° 0 mm 2 m/S 692 mmHg 35%
    08:00 +27°C° 0 mm 2 m/S 692 mmHg 29%
    09:00 +30°C° 0 mm 1 m/S 692 mmHg 23%
    10:00 +31°C° 0 mm 2 m/S 692 mmHg 22%
    11:00 +32°C° 0 mm 2 m/S 692 mmHg 22%
    12:00 +34°C° 0 mm 3 m/S 692 mmHg 21%
    13:00 +34°C° 0 mm 3 m/S 692 mmHg 21%
    14:00 +34°C° 0 mm 3 m/S 691 mmHg 21%
    15:00 +34°C° 0 mm 4 m/S 691 mmHg 22%
    16:00 +34°C° 0 mm 4 m/S 691 mmHg 25%
    17:00 +33°C° 0 mm 4 m/S 691 mmHg 28%
    18:00 +32°C° 0 mm 4 m/S 691 mmHg 31%
    19:00 +28°C° 0 mm 3 m/S 691 mmHg 37%
    20:00 +25°C° 0 mm 2 m/S 691 mmHg 43%
    21:00 +21°C° 0 mm 2 m/S 692 mmHg 49%
    22:00 +21°C° 0 mm 2 m/S 692 mmHg 48%
    23:00 +20°C° 0 mm 2 m/S 692 mmHg 47%

    1 Juli, Samstag

    Zeit Temperatur Niederschläge Wind Luftdruck Luftfeuchtigkeit
    00:00 +20°C° 0 mm 2 m/S 692 mmHg 46%
    01:00 +20°C° 0 mm 2 m/S 692 mmHg 45%
    02:00 +20°C° 0 mm 2 m/S 692 mmHg 44%
    03:00 +20°C° 0 mm 2 m/S 692 mmHg 43%
    04:00 +20°C° 0 mm 2 m/S 693 mmHg 42%
    05:00 +21°C° 0 mm 2 m/S 693 mmHg 42%
    06:00 +23°C° 0 mm 2 m/S 694 mmHg 41%
    07:00 +25°C° 0 mm 2 m/S 694 mmHg 37%
    08:00 +27°C° 0 mm 2 m/S 695 mmHg 32%
    09:00 +29°C° 0 mm 1 m/S 695 mmHg 28%
    10:00 +30°C° 0 mm 2 m/S 695 mmHg 27%
    11:00 +31°C° 0 mm 3 m/S 695 mmHg 26%
    12:00 +33°C° 0 mm 3 m/S 694 mmHg 25%
    13:00 +33°C° 0 mm 4 m/S 694 mmHg 25%
    14:00 +34°C° 0 mm 4 m/S 694 mmHg 25%
    15:00 +34°C° 0 mm 4 m/S 694 mmHg 25%
    16:00 +33°C° 0 mm 4 m/S 694 mmHg 27%
    17:00 +32°C° 0 mm 4 m/S 694 mmHg 29%
    18:00 +32°C° 0 mm 4 m/S 694 mmHg 31%
    19:00 +28°C° 0 mm 3 m/S 694 mmHg 36%
    20:00 +25°C° 0 mm 2 m/S 694 mmHg 41%
    21:00 +21°C° 0 mm 2 m/S 694 mmHg 47%
    22:00 +21°C° 0 mm 2 m/S 694 mmHg 45%
    23:00 +21°C° 0 mm 2 m/S 694 mmHg 44%
    Mehr zeigen